QTR8089 OTHH-OOMS

Flight info

Callsign QTR8089
Flight time 1h 5m
Altitude 27000
Route BUNDU B415 RURAL N685 LAKLU G216 MCT
Aircraft B77L/H-SDE1E2E3FGHIJ2J3J4J5M1RWXY/LB1D1

Departure

Time 2026-05-08 14:32
Airport Hamad International Airport (OTHH)

Arrival

Time 2026-05-08 15:37
Airport Muscat International Airport (OOMS)
Time Latitude Longitude Altitude Speed Heading
2026-05-08 14:11 25.28118 51.61013 34 ft 0 kts 248°
2026-05-08 14:18 25.28121 51.61022 34 ft 3 kts 248°
2026-05-08 14:18 25.28129 51.61045 34 ft 3 kts 248°
2026-05-08 14:19 25.28138 51.61068 33 ft 3 kts 248°
2026-05-08 14:19 25.28145 51.61088 32 ft 3 kts 242°
2026-05-08 14:19 25.28157 51.61104 31 ft 3 kts 192°
2026-05-08 14:19 25.28177 51.61102 33 ft 3 kts 158°
2026-05-08 14:20 25.28197 51.61093 32 ft 3 kts 158°
2026-05-08 14:20 25.28206 51.61089 32 ft 0 kts 158°
2026-05-08 14:22 25.28192 51.61095 32 ft 3 kts 158°
2026-05-08 14:22 25.28168 51.61119 31 ft 6 kts 122°
2026-05-08 14:23 25.28166 51.61163 34 ft 6 kts 72°
2026-05-08 14:23 25.28180 51.61207 34 ft 6 kts 71°
2026-05-08 14:23 25.28194 51.61250 34 ft 6 kts 70°
2026-05-08 14:23 25.28193 51.61295 33 ft 6 kts 114°
2026-05-08 14:24 25.28159 51.61325 33 ft 7 kts 153°
2026-05-08 14:24 25.28115 51.61344 33 ft 7 kts 159°
2026-05-08 14:24 25.28070 51.61363 33 ft 7 kts 159°
2026-05-08 14:24 25.28024 51.61383 33 ft 7 kts 158°
2026-05-08 14:25 25.27977 51.61404 33 ft 7 kts 158°
2026-05-08 14:25 25.27928 51.61426 32 ft 8 kts 159°
2026-05-08 14:25 25.27876 51.61447 32 ft 8 kts 159°
2026-05-08 14:25 25.27825 51.61469 32 ft 8 kts 159°
2026-05-08 14:26 25.27774 51.61492 33 ft 8 kts 157°
2026-05-08 14:26 25.27723 51.61515 33 ft 8 kts 158°
2026-05-08 14:26 25.27663 51.61542 33 ft 16 kts 158°
2026-05-08 14:26 25.27513 51.61607 33 ft 25 kts 158°
2026-05-08 14:27 25.27355 51.61677 33 ft 25 kts 158°
2026-05-08 14:27 25.27197 51.61747 33 ft 25 kts 158°
2026-05-08 14:27 25.27038 51.61817 33 ft 24 kts 158°
2026-05-08 14:27 25.26880 51.61887 32 ft 24 kts 158°
2026-05-08 14:28 25.26722 51.61957 33 ft 24 kts 158°
2026-05-08 14:28 25.26563 51.62024 33 ft 24 kts 159°
2026-05-08 14:28 25.26405 51.62096 33 ft 24 kts 157°
2026-05-08 14:28 25.26247 51.62165 34 ft 24 kts 159°
2026-05-08 14:29 25.26089 51.62234 34 ft 24 kts 158°
2026-05-08 14:29 25.25931 51.62305 34 ft 24 kts 158°
2026-05-08 14:29 25.25781 51.62371 34 ft 17 kts 158°
2026-05-08 14:29 25.25668 51.62421 33 ft 17 kts 158°
2026-05-08 14:30 25.25571 51.62463 33 ft 12 kts 158°
2026-05-08 14:30 25.25512 51.62517 33 ft 12 kts 103°
2026-05-08 14:30 25.25531 51.62605 31 ft 12 kts 61°
2026-05-08 14:30 25.25600 51.62648 31 ft 12 kts 354°
2026-05-08 14:31 25.25756 51.62587 30 ft 46 kts 337°
2026-05-08 14:31 25.26055 51.62453 31 ft 93 kts 338°
2026-05-08 14:31 25.26852 51.62102 28 ft 151 kts 338°
2026-05-08 14:32 25.28999 51.61133 875 ft 166 kts 344°
2026-05-08 14:32 25.30091 51.60688 1440 ft 173 kts 341°
2026-05-08 14:32 25.31267 51.60169 1849 ft 189 kts 340°
2026-05-08 14:32 25.32529 51.59605 2301 ft 203 kts 342°
2026-05-08 14:33 25.33917 51.59343 2817 ft 207 kts
2026-05-08 14:33 25.35241 51.59992 3342 ft 213 kts 38°
2026-05-08 14:33 25.36112 51.61349 3607 ft 221 kts 69°
2026-05-08 14:33 25.36340 51.63042 3965 ft 228 kts 80°
2026-05-08 14:34 25.36471 51.64851 3995 ft 242 kts 81°
2026-05-08 14:34 25.36608 51.66705 4029 ft 243 kts 82°
2026-05-08 14:34 25.36695 51.68603 4024 ft 250 kts 88°
2026-05-08 14:34 25.36623 51.70511 4565 ft 247 kts 90°
2026-05-08 14:35 25.36394 51.72486 4891 ft 273 kts 99°
2026-05-08 14:35 25.36003 51.74601 5397 ft 286 kts 101°
2026-05-08 14:35 25.35568 51.76774 6088 ft 293 kts 101°
2026-05-08 14:35 25.35121 51.78989 6854 ft 296 kts 101°
2026-05-08 14:36 25.34670 51.81232 7570 ft 299 kts 102°
2026-05-08 14:36 25.34222 51.83470 8509 ft 295 kts 102°
2026-05-08 14:36 25.33780 51.85691 9295 ft 300 kts 102°
2026-05-08 14:36 25.33331 51.87954 9998 ft 304 kts 102°
2026-05-08 14:37 25.32870 51.90262 10550 ft 317 kts 103°
2026-05-08 14:37 25.32373 51.92744 10730 ft 344 kts 103°
2026-05-08 14:37 25.31837 51.95426 10905 ft 371 kts 103°
2026-05-08 14:37 25.31267 51.98281 11327 ft 386 kts 103°
2026-05-08 14:38 25.30686 52.01197 12176 ft 391 kts 104°
2026-05-08 14:38 25.30099 52.04141 13148 ft 392 kts 105°
2026-05-08 14:38 25.29505 52.07094 14038 ft 395 kts 105°
2026-05-08 14:38 25.28688 52.09980 14597 ft 396 kts 119°
2026-05-08 14:39 25.27357 52.12096 15055 ft 394 kts 132°
2026-05-08 14:39 25.25563 52.14438 15603 ft 403 kts 131°
2026-05-08 14:39 25.23782 52.16849 16396 ft 406 kts 131°
2026-05-08 14:39 25.22002 52.19308 17137 ft 411 kts 130°
2026-05-08 14:40 25.20238 52.21763 17821 ft 417 kts 130°
2026-05-08 14:40 25.18424 52.24295 18430 ft 423 kts 130°
2026-05-08 14:40 25.16590 52.26856 19078 ft 427 kts 131°
2026-05-08 14:40 25.14737 52.29441 19706 ft 430 kts 130°
2026-05-08 14:41 25.12870 52.32040 20308 ft 435 kts 131°
2026-05-08 14:41 25.10974 52.34679 20898 ft 439 kts 131°
2026-05-08 14:41 25.09066 52.37339 21483 ft 443 kts 131°
2026-05-08 14:41 25.07147 52.40015 22096 ft 447 kts 131°
2026-05-08 14:42 25.05237 52.42679 22676 ft 451 kts 131°
2026-05-08 14:42 25.03281 52.45404 23219 ft 455 kts 131°
2026-05-08 14:42 25.01321 52.48165 23687 ft 460 kts 129°
2026-05-08 14:42 24.99768 52.51278 24078 ft 471 kts 112°
2026-05-08 14:43 24.98807 52.54761 24545 ft 475 kts 108°
2026-05-08 14:43 24.97895 52.58273 24977 ft 478 kts 109°
2026-05-08 14:43 24.96916 52.61789 25397 ft 482 kts 110°
2026-05-08 14:43 24.95876 52.65313 25810 ft 485 kts 111°
2026-05-08 14:44 24.94826 52.68864 26225 ft 490 kts 110°
2026-05-08 14:44 24.93883 52.72487 26636 ft 494 kts 108°
2026-05-08 14:44 24.92984 52.76171 26833 ft 501 kts 108°
2026-05-08 14:44 24.92100 52.79894 26807 ft 501 kts 108°
2026-05-08 14:45 24.91223 52.83604 26808 ft 498 kts 108°
2026-05-08 14:45 24.90346 52.87282 26802 ft 496 kts 108°
2026-05-08 14:45 24.89461 52.90950 26803 ft 494 kts 108°
2026-05-08 14:45 24.88585 52.94550 26807 ft 493 kts 108°
2026-05-08 14:46 24.87693 52.98196 26808 ft 493 kts 108°
2026-05-08 14:46 24.86799 53.01839 26803 ft 493 kts 108°
2026-05-08 14:46 24.85902 53.05489 26800 ft 493 kts 108°
2026-05-08 14:46 24.85006 53.09133 26806 ft 494 kts 108°
2026-05-08 14:47 24.84108 53.12786 26805 ft 494 kts 108°
2026-05-08 14:47 24.83209 53.16438 26805 ft 495 kts 108°
2026-05-08 14:47 24.82306 53.20109 26805 ft 496 kts 108°
2026-05-08 14:47 24.81403 53.23770 26803 ft 496 kts 108°
2026-05-08 14:48 24.80511 53.27389 26798 ft 497 kts 108°
2026-05-08 14:48 24.79604 53.31058 26800 ft 497 kts 108°
2026-05-08 14:48 24.78695 53.34734 26801 ft 497 kts 108°
2026-05-08 14:48 24.77784 53.38406 26800 ft 497 kts 108°
2026-05-08 14:49 24.76871 53.42078 26799 ft 497 kts 108°
2026-05-08 14:49 24.75958 53.45751 26793 ft 497 kts 108°
2026-05-08 14:49 24.75046 53.49414 26794 ft 497 kts 108°
2026-05-08 14:49 24.74132 53.53083 26786 ft 497 kts 108°
2026-05-08 14:50 24.73218 53.56750 26796 ft 497 kts 108°
2026-05-08 14:50 24.72305 53.60408 26797 ft 496 kts 108°
2026-05-08 14:50 24.71391 53.64068 26796 ft 496 kts 108°
2026-05-08 14:50 24.70474 53.67732 26797 ft 496 kts 108°
2026-05-08 14:51 24.69559 53.71389 26795 ft 496 kts 108°
2026-05-08 14:51 24.68642 53.75044 26789 ft 496 kts 108°
2026-05-08 14:51 24.67738 53.78646 26792 ft 495 kts 108°
2026-05-08 14:51 24.66821 53.82298 26795 ft 495 kts 108°
2026-05-08 14:52 24.65902 53.85954 26791 ft 495 kts 108°
2026-05-08 14:52 24.64063 53.93255 26792 ft 496 kts 108°
2026-05-08 14:52 24.63165 53.96919 26792 ft 496 kts 107°
2026-05-08 14:53 24.62333 54.00602 26782 ft 497 kts 106°
2026-05-08 14:53 24.61530 54.04293 26787 ft 497 kts 106°
2026-05-08 14:53 24.60732 54.07987 26791 ft 497 kts 106°
2026-05-08 14:53 24.59927 54.11679 26792 ft 496 kts 106°
2026-05-08 14:54 24.59133 54.15284 26774 ft 486 kts 106°
2026-05-08 14:54 24.58336 54.18869 26776 ft 480 kts 106°
2026-05-08 14:54 24.57538 54.22432 26784 ft 479 kts 107°
2026-05-08 14:54 24.56739 54.25988 26786 ft 480 kts 107°
2026-05-08 14:55 24.55939 54.29549 26793 ft 480 kts 107°
2026-05-08 14:55 24.55139 54.33116 26791 ft 481 kts 107°
2026-05-08 14:55 24.54339 54.36679 26791 ft 481 kts 107°
2026-05-08 14:55 24.53586 54.40262 26784 ft 482 kts 104°
2026-05-08 14:56 24.52951 54.43883 26783 ft 483 kts 103°
2026-05-08 14:56 24.52327 54.47503 26778 ft 482 kts 104°
2026-05-08 14:56 24.51516 54.51019 26767 ft 480 kts 110°
2026-05-08 14:56 24.50337 54.54430 26768 ft 477 kts 116°
2026-05-08 14:57 24.48890 54.57692 26772 ft 474 kts 122°
2026-05-08 14:57 24.47176 54.60767 26796 ft 472 kts 125°
2026-05-08 14:57 24.45428 54.63816 26773 ft 472 kts 124°
2026-05-08 14:57 24.43709 54.66882 26771 ft 472 kts 124°
2026-05-08 14:58 24.41982 54.69950 26774 ft 471 kts 125°
2026-05-08 14:58 24.40229 54.72986 26776 ft 471 kts 125°
2026-05-08 14:58 24.38461 54.76012 26776 ft 471 kts 126°
2026-05-08 14:58 24.36689 54.79041 26792 ft 471 kts 126°
2026-05-08 14:59 24.34918 54.82073 26776 ft 471 kts 125°
2026-05-08 14:59 24.31411 54.88100 26798 ft 471 kts 125°
2026-05-08 14:59 24.29649 54.91130 26787 ft 471 kts 125°
2026-05-08 15:00 24.27890 54.94155 26800 ft 471 kts 125°
2026-05-08 15:00 24.26127 54.97186 26811 ft 471 kts 125°
2026-05-08 15:00 24.24364 55.00214 26797 ft 472 kts 125°
2026-05-08 15:00 24.22598 55.03243 26803 ft 472 kts 125°
2026-05-08 15:01 24.20829 55.06276 26815 ft 472 kts 125°
2026-05-08 15:01 24.19061 55.09302 26813 ft 472 kts 125°
2026-05-08 15:01 24.17288 55.12332 26811 ft 472 kts 125°
2026-05-08 15:01 24.15514 55.15364 26809 ft 472 kts 125°
2026-05-08 15:02 24.13743 55.18391 26809 ft 472 kts 125°
2026-05-08 15:02 24.11996 55.21376 26812 ft 472 kts 125°
2026-05-08 15:02 24.10225 55.24399 26812 ft 472 kts 125°
2026-05-08 15:02 24.08452 55.27425 26817 ft 472 kts 125°
2026-05-08 15:03 24.06683 55.30446 26813 ft 472 kts 124°
2026-05-08 15:03 24.05051 55.33575 26814 ft 474 kts 119°
2026-05-08 15:03 24.03729 55.36875 26823 ft 475 kts 113°
2026-05-08 15:03 24.02558 55.40251 26828 ft 475 kts 112°
2026-05-08 15:04 24.01387 55.43630 26825 ft 475 kts 113°
2026-05-08 15:04 24.00200 55.47003 26818 ft 475 kts 113°
2026-05-08 15:04 23.98996 55.50374 26826 ft 475 kts 113°
2026-05-08 15:04 23.97787 55.53732 26829 ft 475 kts 114°
2026-05-08 15:05 23.96565 55.57093 26826 ft 475 kts 115°
2026-05-08 15:05 23.95194 55.60366 26828 ft 473 kts 118°
2026-05-08 15:05 23.93708 55.63574 26827 ft 473 kts 119°
2026-05-08 15:05 23.92208 55.66719 26827 ft 473 kts 120°
2026-05-08 15:06 23.90660 55.69943 26838 ft 473 kts 120°
2026-05-08 15:06 23.89154 55.73098 26837 ft 473 kts 119°
2026-05-08 15:06 23.87641 55.76294 26837 ft 474 kts 119°
2026-05-08 15:06 23.86136 55.79494 26843 ft 474 kts 119°
2026-05-08 15:07 23.84633 55.82702 26845 ft 474 kts 119°
2026-05-08 15:07 23.83132 55.85908 26849 ft 474 kts 119°
2026-05-08 15:07 23.81633 55.89112 26851 ft 474 kts 120°
2026-05-08 15:07 23.80135 55.92312 26854 ft 474 kts 119°
2026-05-08 15:08 23.78634 55.95514 26858 ft 473 kts 119°
2026-05-08 15:08 23.77618 55.97680 26859 ft 473 kts 119°
2026-05-08 15:08 23.75629 56.01918 26857 ft 474 kts 120°
2026-05-08 15:08 23.74127 56.05114 26858 ft 474 kts 120°
2026-05-08 15:09 23.72660 56.08335 26857 ft 474 kts 115°
2026-05-08 15:09 23.71502 56.11718 26864 ft 476 kts 109°
2026-05-08 15:09 23.70665 56.15220 26868 ft 478 kts 103°
2026-05-08 15:09 23.70139 56.18788 26862 ft 478 kts 100°
2026-05-08 15:10 23.69669 56.22374 26860 ft 479 kts 100°
2026-05-08 15:10 23.69239 56.25682 26851 ft 479 kts 99°
2026-05-08 15:10 23.68751 56.29396 26860 ft 478 kts 100°
2026-05-08 15:10 23.68276 56.32941 26866 ft 479 kts 100°
2026-05-08 15:11 23.67786 56.36536 26872 ft 479 kts 99°
2026-05-08 15:11 23.67290 56.40138 26864 ft 480 kts 100°
2026-05-08 15:11 23.66788 56.43741 26869 ft 480 kts 99°
2026-05-08 15:11 23.66285 56.47345 26869 ft 480 kts 99°
2026-05-08 15:12 23.65782 56.50947 26860 ft 480 kts 99°
2026-05-08 15:12 23.65277 56.54546 26864 ft 480 kts 99°
2026-05-08 15:12 23.64771 56.58148 26857 ft 480 kts 99°
2026-05-08 15:12 23.64266 56.61738 26864 ft 478 kts 99°
2026-05-08 15:13 23.63763 56.65315 26858 ft 477 kts 99°
2026-05-08 15:13 23.63266 56.68845 26859 ft 476 kts 99°
2026-05-08 15:13 23.62763 56.72410 26853 ft 476 kts 99°
2026-05-08 15:13 23.62260 56.75974 26843 ft 475 kts 99°
2026-05-08 15:14 23.61756 56.79530 26854 ft 474 kts 99°
2026-05-08 15:14 23.61252 56.83083 26859 ft 474 kts 100°
2026-05-08 15:14 23.60747 56.86641 26847 ft 474 kts 99°
2026-05-08 15:14 23.60242 56.90187 26855 ft 474 kts 99°
2026-05-08 15:15 23.59736 56.93736 26850 ft 473 kts 99°
2026-05-08 15:15 23.59233 56.97257 26787 ft 466 kts 99°
2026-05-08 15:15 23.58739 57.00717 26556 ft 457 kts 99°
2026-05-08 15:15 23.58254 57.04111 26228 ft 449 kts 99°
2026-05-08 15:16 23.57773 57.07460 25855 ft 443 kts 100°
2026-05-08 15:16 23.57302 57.10746 25613 ft 434 kts 100°
2026-05-08 15:16 23.56838 57.13973 25258 ft 429 kts 99°
2026-05-08 15:16 23.56377 57.17166 24869 ft 424 kts 99°
2026-05-08 15:17 23.55921 57.20325 24479 ft 420 kts 99°
2026-05-08 15:17 23.55466 57.23469 24060 ft 418 kts 100°
2026-05-08 15:17 23.55014 57.26589 23646 ft 416 kts 99°
2026-05-08 15:17 23.54570 57.29657 23276 ft 412 kts 99°
2026-05-08 15:18 23.54127 57.32704 23039 ft 403 kts 99°
2026-05-08 15:18 23.53693 57.35692 22830 ft 395 kts 100°
2026-05-08 15:18 23.53264 57.38638 22470 ft 391 kts 100°
2026-05-08 15:18 23.52839 57.41555 22079 ft 388 kts 100°
2026-05-08 15:19 23.52417 57.44446 21694 ft 385 kts 100°
2026-05-08 15:19 23.51998 57.47315 21307 ft 382 kts 100°
2026-05-08 15:19 23.51582 57.50158 20925 ft 379 kts 100°
2026-05-08 15:19 23.51169 57.52974 20564 ft 375 kts 100°
2026-05-08 15:20 23.50757 57.55782 20090 ft 371 kts 100°
2026-05-08 15:20 23.50356 57.58520 19295 ft 362 kts 100°
2026-05-08 15:20 23.49966 57.61176 18373 ft 358 kts 101°
2026-05-08 15:20 23.49572 57.63848 17327 ft 358 kts 100°
2026-05-08 15:21 23.49243 57.66527 16427 ft 355 kts 94°
2026-05-08 15:21 23.49235 57.69183 15700 ft 347 kts 88°
2026-05-08 15:21 23.49471 57.71768 14939 ft 341 kts 81°
2026-05-08 15:21 23.49906 57.74312 14048 ft 341 kts 79°
2026-05-08 15:22 23.50370 57.76859 13056 ft 343 kts 79°
2026-05-08 15:22 23.50836 57.79401 12246 ft 339 kts 79°
2026-05-08 15:22 23.51288 57.81877 11670 ft 327 kts 79°
2026-05-08 15:22 23.51721 57.84267 11249 ft 317 kts 79°
2026-05-08 15:23 23.52007 57.85855 11075 ft 313 kts 79°
2026-05-08 15:23 23.52415 57.88128 10831 ft 307 kts 79°
2026-05-08 15:23 23.52954 57.91151 10534 ft 297 kts 79°
2026-05-08 15:23 23.53211 57.92595 10459 ft 289 kts 79°
2026-05-08 15:24 23.53585 57.94701 10324 ft 277 kts 80°
2026-05-08 15:24 23.53945 57.96728 10217 ft 270 kts 80°
2026-05-08 15:24 23.54309 57.98781 10133 ft 281 kts 80°
2026-05-08 15:24 23.54686 58.00920 9898 ft 294 kts 80°
2026-05-08 15:25 23.55077 58.03133 9568 ft 298 kts 80°
2026-05-08 15:25 23.55470 58.05354 9015 ft 299 kts 80°
2026-05-08 15:25 23.55856 58.07543 8498 ft 288 kts 79°
2026-05-08 15:25 23.56227 58.09645 8124 ft 276 kts 80°
2026-05-08 15:26 23.56585 58.11674 7819 ft 271 kts 79°
2026-05-08 15:26 23.56937 58.13675 7476 ft 267 kts 79°
2026-05-08 15:26 23.57257 58.15497 7198 ft 265 kts 79°
2026-05-08 15:26 23.57596 58.17426 6922 ft 268 kts 79°
2026-05-08 15:27 23.57952 58.19448 6613 ft 274 kts 79°
2026-05-08 15:27 23.58313 58.21505 6306 ft 276 kts 79°
2026-05-08 15:27 23.58667 58.23526 6166 ft 265 kts 79°
2026-05-08 15:27 23.59005 58.25452 6071 ft 252 kts 78°
2026-05-08 15:28 23.59512 58.27249 6008 ft 247 kts 66°
2026-05-08 15:28 23.60239 58.28946 6010 ft 247 kts 64°
2026-05-08 15:28 23.60989 58.30609 6007 ft 248 kts 64°
2026-05-08 15:28 23.61747 58.32300 6002 ft 248 kts 64°
2026-05-08 15:29 23.62500 58.34000 5966 ft 251 kts 64°
2026-05-08 15:29 23.63272 58.35760 5490 ft 262 kts 64°
2026-05-08 15:29 23.64045 58.37538 5249 ft 255 kts 64°
2026-05-08 15:29 23.64783 58.39246 5116 ft 243 kts 64°
2026-05-08 15:30 23.65493 58.40896 5003 ft 238 kts 65°
2026-05-08 15:30 23.66198 58.42535 4919 ft 241 kts 64°
2026-05-08 15:30 23.66917 58.44212 4826 ft 246 kts 65°
2026-05-08 15:30 23.67647 58.45913 4692 ft 248 kts 65°
2026-05-08 15:31 23.68373 58.47610 4591 ft 244 kts 64°
2026-05-08 15:31 23.69052 58.49259 4443 ft 231 kts 73°
2026-05-08 15:31 23.69149 58.50954 4217 ft 225 kts 106°
2026-05-08 15:31 23.68384 58.52397 3952 ft 221 kts 140°
2026-05-08 15:32 23.67039 58.53093 3784 ft 213 kts 174°
2026-05-08 15:32 23.65613 58.52839 3521 ft 210 kts 210°
2026-05-08 15:32 23.64531 58.51820 3317 ft 204 kts 229°
2026-05-08 15:32 23.63624 58.50652 3213 ft 198 kts 231°
2026-05-08 15:33 23.62800 58.49471 3129 ft 194 kts 246°
2026-05-08 15:33 23.62475 58.48053 3075 ft 193 kts 262°
2026-05-08 15:33 23.62279 58.46567 2839 ft 201 kts 264°
2026-05-08 15:33 23.62135 58.45075 2599 ft 192 kts 266°
2026-05-08 15:34 23.62017 58.43638 2374 ft 189 kts 266°
2026-05-08 15:34 23.61906 58.42256 2146 ft 175 kts 266°
2026-05-08 15:34 23.61804 58.40965 1917 ft 166 kts 266°
2026-05-08 15:34 23.61705 58.39735 1736 ft 161 kts 268°
2026-05-08 15:35 23.61609 58.38522 1543 ft 162 kts 269°
2026-05-08 15:35 23.61512 58.37297 1334 ft 162 kts 268°
2026-05-08 15:35 23.61414 58.36074 1146 ft 162 kts 267°
2026-05-08 15:35 23.61304 58.34851 931 ft 163 kts 266°
2026-05-08 15:36 23.61204 58.33616 756 ft 164 kts 268°
2026-05-08 15:36 23.61117 58.32366 553 ft 167 kts 266°
2026-05-08 15:36 23.61016 58.31099 326 ft 169 kts 266°
2026-05-08 15:36 23.60912 58.29829 141 ft 167 kts 266°
2026-05-08 15:37 23.60818 58.28605 41 ft 151 kts 264°
2026-05-08 15:37 23.60740 58.27633 37 ft 106 kts 265°
2026-05-08 15:37 23.60689 58.26998 41 ft 62 kts 265°
2026-05-08 15:37 23.60664 58.26681 40 ft 25 kts 265°
2026-05-08 15:38 23.60650 58.26539 39 ft 14 kts 255°
2026-05-08 15:38 23.60573 58.26487 38 ft 14 kts 180°
2026-05-08 15:38 23.60491 58.26493 38 ft 11 kts 174°
2026-05-08 15:38 23.60417 58.26501 38 ft 10 kts 168°
2026-05-08 15:39 23.60391 58.26563 38 ft 10 kts 88°
2026-05-08 15:39 23.60400 58.26636 38 ft 10 kts 84°
2026-05-08 15:39 23.60404 58.26709 39 ft 10 kts 86°
2026-05-08 15:39 23.60410 58.26782 39 ft 10 kts 85°
2026-05-08 15:40 23.60416 58.26861 39 ft 13 kts 84°
2026-05-08 15:40 23.60426 58.26973 39 ft 15 kts 84°
2026-05-08 15:40 23.60436 58.27086 39 ft 15 kts 84°
2026-05-08 15:40 23.60434 58.27164 39 ft 7 kts 109°
2026-05-08 15:41 23.60372 58.27206 38 ft 13 kts 180°
2026-05-08 15:41 23.60277 58.27211 38 ft 13 kts 175°
2026-05-08 15:41 23.60185 58.27220 38 ft 13 kts 175°
2026-05-08 15:41 23.60090 58.27229 38 ft 13 kts 175°
2026-05-08 15:42 23.59999 58.27237 38 ft 13 kts 175°
2026-05-08 15:42 23.59905 58.27246 38 ft 13 kts 174°
2026-05-08 15:42 23.59812 58.27255 38 ft 13 kts 175°
2026-05-08 15:42 23.59719 58.27264 38 ft 13 kts 175°
2026-05-08 15:43 23.59626 58.27273 38 ft 13 kts 175°
2026-05-08 15:43 23.59545 58.27283 38 ft 8 kts 161°
2026-05-08 15:43 23.59520 58.27336 38 ft 11 kts 91°
2026-05-08 15:43 23.59526 58.27440 38 ft 16 kts 84°
2026-05-08 15:44 23.59536 58.27566 38 ft 17 kts 85°
2026-05-08 15:44 23.59546 58.27692 38 ft 17 kts 85°
2026-05-08 15:44 23.59556 58.27818 38 ft 17 kts 85°
2026-05-08 15:44 23.59566 58.27944 38 ft 17 kts 85°
2026-05-08 15:45 23.59576 58.28070 38 ft 17 kts 85°
2026-05-08 15:45 23.59586 58.28196 38 ft 17 kts 85°
2026-05-08 15:45 23.59597 58.28323 38 ft 19 kts 85°
2026-05-08 15:45 23.59609 58.28479 38 ft 21 kts 85°
2026-05-08 15:46 23.59622 58.28638 38 ft 21 kts 85°
2026-05-08 15:46 23.59635 58.28796 38 ft 21 kts 85°
2026-05-08 15:46 23.59648 58.28955 38 ft 21 kts 85°
2026-05-08 15:46 23.59661 58.29114 38 ft 21 kts 85°
2026-05-08 15:47 23.59673 58.29272 39 ft 21 kts 85°
2026-05-08 15:47 23.59685 58.29431 39 ft 21 kts 85°
2026-05-08 15:47 23.59698 58.29589 39 ft 21 kts 85°
2026-05-08 15:47 23.59710 58.29748 39 ft 21 kts 85°
2026-05-08 15:48 23.59736 58.30064 39 ft 21 kts 85°
2026-05-08 15:48 23.59744 58.30170 39 ft 12 kts 85°
2026-05-08 15:48 23.59753 58.30240 39 ft 8 kts 72°
2026-05-08 15:49 23.59806 58.30255 39 ft 8 kts 353°
2026-05-08 15:49 23.59832 58.30252 39 ft 3 kts 358°
2026-05-08 15:49 23.59853 58.30250 39 ft 2 kts 354°
2026-05-08 15:49 23.59861 58.30249 39 ft 0 kts 355°
2026-05-08 15:50 23.59862 58.30249 39 ft 0 kts 355°